contact:dominique.lefevre@mio.osupytheas.fr, maurice.libes@osupytheas.fr, didier.mallarino@osupytheas.fr
Project:EMSO http://www.emso-fr.org/EMSO-France
Depth: 2436.0 m
Title:EMSO Ligure Ouest : Data MII capteur MICROCAT
DateTime_Computer,Latitude,Longitude,Temperature,Conductivity,Pressure,DateTime_Instrument
DateTime_Computer,Latitude,Longitude,degC,S m-1,dbar,DateTime_Instrument
2023-07-25T00:00:51Z,42.805,6.029,13.3042,4.60125,2470.717,2023-7-25T02:03:08Z
2023-07-25T00:03:54Z,42.805,6.029,13.3041,4.60114,2470.763,2023-7-25T02:06:11Z
2023-07-25T00:06:57Z,42.805,6.029,13.3035,4.60124,2470.754,2023-7-25T02:09:14Z
2023-07-25T00:10:00Z,42.805,6.029,13.3036,4.60110,2470.74,2023-7-25T02:12:17Z
2023-07-25T00:13:03Z,42.805,6.029,13.3054,4.60157,2470.74,2023-7-25T02:15:20Z
2023-07-25T00:16:06Z,42.805,6.029,13.3042,4.60124,2470.754,2023-7-25T02:18:24Z
2023-07-25T00:19:09Z,42.805,6.029,13.3044,4.60130,2470.74,2023-7-25T02:21:27Z
2023-07-25T00:22:12Z,42.805,6.029,13.3029,4.60123,2470.763,2023-7-25T02:24:30Z
2023-07-25T00:25:15Z,42.805,6.029,13.3051,4.60125,2470.717,2023-7-25T02:27:33Z
2023-07-25T00:28:18Z,42.805,6.029,13.3041,4.60135,2470.707,2023-7-25T02:30:36Z
2023-07-25T00:31:21Z,42.805,6.029,13.3045,4.60127,2470.754,2023-7-25T02:33:39Z
2023-07-25T00:34:25Z,42.805,6.029,13.3043,4.60140,2470.74,2023-7-25T02:36:42Z
2023-07-25T00:37:28Z,42.805,6.029,13.3046,4.60148,2470.73,2023-7-25T02:39:45Z
2023-07-25T00:40:31Z,42.805,6.029,13.3047,4.60149,2470.73,2023-7-25T02:42:48Z
2023-07-25T00:43:34Z,42.805,6.029,13.3034,4.60117,2470.717,2023-7-25T02:45:51Z
2023-07-25T00:46:37Z,42.805,6.029,13.3026,4.60119,2470.73,2023-7-25T02:48:54Z
2023-07-25T00:49:40Z,42.805,6.029,13.3041,4.60149,2470.754,2023-7-25T02:51:57Z
2023-07-25T00:52:43Z,42.805,6.029,13.3038,4.60121,2470.73,2023-7-25T02:55:01Z
2023-07-25T00:55:46Z,42.805,6.029,13.3041,4.60142,2470.717,2023-7-25T02:58:04Z
2023-07-25T00:58:49Z,42.805,6.029,13.3034,4.60115,2470.74,2023-7-25T03:01:07Z
2023-07-25T01:01:52Z,42.805,6.029,13.3033,4.60102,2470.717,2023-7-25T03:04:10Z
2023-07-25T01:04:55Z,42.805,6.029,13.3033,4.60109,2470.73,2023-7-25T03:07:13Z
2023-07-25T01:07:58Z,42.805,6.029,13.3043,4.60140,2470.73,2023-7-25T03:10:16Z
2023-07-25T01:11:02Z,42.805,6.029,13.3050,4.60139,2470.754,2023-7-25T03:13:19Z
2023-07-25T01:14:05Z,42.805,6.029,13.3051,4.60167,2470.707,2023-7-25T03:16:22Z
2023-07-25T01:17:08Z,42.805,6.029,13.3040,4.60142,2470.684,2023-7-25T03:19:25Z
2023-07-25T01:20:11Z,42.805,6.029,13.3033,4.60133,2470.73,2023-7-25T03:22:28Z
2023-07-25T01:23:14Z,42.805,6.029,13.3031,4.60121,2470.717,2023-7-25T03:25:31Z
2023-07-25T01:26:17Z,42.805,6.029,13.3034,4.60104,2470.717,2023-7-25T03:28:34Z
2023-07-25T01:29:20Z,42.805,6.029,13.3041,4.60139,2470.707,2023-7-25T03:31:38Z
2023-07-25T01:32:23Z,42.805,6.029,13.3073,4.60145,2470.73,2023-7-25T03:34:41Z
2023-07-25T01:35:26Z,42.805,6.029,13.3037,4.60145,2470.707,2023-7-25T03:37:44Z
2023-07-25T01:38:29Z,42.805,6.029,13.3034,4.60142,2470.754,2023-7-25T03:40:47Z
2023-07-25T01:41:32Z,42.805,6.029,13.3043,4.60145,2470.693,2023-7-25T03:43:50Z
2023-07-25T01:44:35Z,42.805,6.029,13.3039,4.60159,2470.67,2023-7-25T03:46:53Z
2023-07-25T01:47:39Z,42.805,6.029,13.3034,4.60137,2470.684,2023-7-25T03:49:56Z
2023-07-25T01:50:42Z,42.805,6.029,13.3035,4.60151,2470.707,2023-7-25T03:52:59Z
2023-07-25T01:53:45Z,42.805,6.029,13.3032,4.60134,2470.684,2023-7-25T03:56:02Z
2023-07-25T01:56:48Z,42.805,6.029,13.3031,4.60128,2470.67,2023-7-25T03:59:05Z
2023-07-25T01:59:51Z,42.805,6.029,13.3033,4.60120,2470.707,2023-7-25T04:02:08Z
2023-07-25T02:02:54Z,42.805,6.029,13.3036,4.60121,2470.67,2023-7-25T04:05:11Z
2023-07-25T02:05:57Z,42.805,6.029,13.3038,4.60145,2470.73,2023-7-25T04:08:14Z
2023-07-25T02:09:00Z,42.805,6.029,13.3037,4.60149,2470.693,2023-7-25T04:11:18Z
2023-07-25T02:12:03Z,42.805,6.029,13.3035,4.60125,2470.693,2023-7-25T04:14:21Z
2023-07-25T02:15:06Z,42.805,6.029,13.3031,4.60116,2470.693,2023-7-25T04:17:24Z
2023-07-25T02:18:09Z,42.805,6.029,13.3035,4.60119,2470.693,2023-7-25T04:20:27Z
2023-07-25T02:21:12Z,42.805,6.029,13.3035,4.60124,2470.67,2023-7-25T04:23:30Z
2023-07-25T02:24:16Z,42.805,6.029,13.3046,4.60131,2470.67,2023-7-25T04:26:33Z
2023-07-25T02:27:19Z,42.805,6.029,13.3041,4.60150,2470.661,2023-7-25T04:29:36Z
2023-07-25T02:30:22Z,42.805,6.029,13.3044,4.60139,2470.684,2023-7-25T04:32:39Z
2023-07-25T02:33:25Z,42.805,6.029,13.3040,4.60158,2470.684,2023-7-25T04:35:42Z
2023-07-25T02:36:28Z,42.805,6.029,13.3039,4.60142,2470.646,2023-7-25T04:38:45Z
2023-07-25T02:39:31Z,42.805,6.029,13.3042,4.60150,2470.684,2023-7-25T04:41:48Z
2023-07-25T02:42:34Z,42.805,6.029,13.3038,4.60137,2470.656,2023-7-25T04:44:52Z
2023-07-25T02:45:37Z,42.805,6.029,13.3046,4.60125,2470.67,2023-7-25T04:47:55Z
2023-07-25T02:48:40Z,42.805,6.029,13.3051,4.60135,2470.693,2023-7-25T04:50:58Z
2023-07-25T02:51:43Z,42.805,6.029,13.3046,4.60144,2470.67,2023-7-25T04:54:01Z
2023-07-25T02:54:46Z,42.805,6.029,13.3042,4.60145,2470.646,2023-7-25T04:57:04Z
2023-07-25T02:57:49Z,42.805,6.029,13.3037,4.60128,2470.684,2023-7-25T05:00:07Z
2023-07-25T03:00:53Z,42.805,6.029,13.3041,4.60132,2470.646,2023-7-25T05:03:10Z
2023-07-25T03:03:56Z,42.805,6.029,13.3052,4.60127,2470.684,2023-7-25T05:06:13Z
2023-07-25T03:06:59Z,42.805,6.029,13.3051,4.60137,2470.67,2023-7-25T05:09:16Z
2023-07-25T03:10:02Z,42.805,6.029,13.3043,4.60143,2470.707,2023-7-25T05:12:19Z
2023-07-25T03:13:05Z,42.805,6.029,13.3039,4.60138,2470.646,2023-7-25T05:15:22Z
2023-07-25T03:16:08Z,42.805,6.029,13.3043,4.60137,2470.646,2023-7-25T05:18:25Z
2023-07-25T03:19:11Z,42.805,6.029,13.3047,4.60139,2470.646,2023-7-25T05:21:29Z
2023-07-25T03:22:14Z,42.805,6.029,13.3037,4.60140,2470.637,2023-7-25T05:24:32Z
2023-07-25T03:25:17Z,42.805,6.029,13.3061,4.60151,2470.646,2023-7-25T05:27:35Z
2023-07-25T03:28:20Z,42.805,6.029,13.3043,4.60152,2470.661,2023-7-25T05:30:38Z
2023-07-25T03:31:23Z,42.805,6.029,13.3034,4.60145,2470.624,2023-7-25T05:33:41Z
2023-07-25T03:34:26Z,42.805,6.029,13.3042,4.60147,2470.661,2023-7-25T05:36:44Z
2023-07-25T03:37:30Z,42.805,6.029,13.3041,4.60138,2470.646,2023-7-25T05:39:47Z
2023-07-25T03:40:33Z,42.805,6.029,13.3042,4.60146,2470.624,2023-7-25T05:42:50Z
2023-07-25T03:43:36Z,42.805,6.029,13.3036,4.60122,2470.67,2023-7-25T05:45:53Z
2023-07-25T03:46:39Z,42.805,6.029,13.3040,4.60132,2470.624,2023-7-25T05:48:56Z
2023-07-25T03:49:42Z,42.805,6.029,13.3040,4.60135,2470.661,2023-7-25T05:51:59Z
2023-07-25T03:52:45Z,42.805,6.029,13.3035,4.60124,2470.67,2023-7-25T05:55:02Z
2023-07-25T03:55:48Z,42.805,6.029,13.3032,4.60112,2470.646,2023-7-25T05:58:06Z
2023-07-25T03:58:51Z,42.805,6.029,13.3045,4.60146,2470.67,2023-7-25T06:01:09Z
2023-07-25T04:01:54Z,42.805,6.029,13.3045,4.60132,2470.624,2023-7-25T06:04:12Z
2023-07-25T04:04:57Z,42.805,6.029,13.3037,4.60140,2470.646,2023-7-25T06:07:15Z
2023-07-25T04:08:00Z,42.805,6.029,13.3046,4.60147,2470.624,2023-7-25T06:10:18Z
2023-07-25T04:11:03Z,42.805,6.029,13.3041,4.60155,2470.637,2023-7-25T06:13:21Z
2023-07-25T04:14:06Z,42.805,6.029,13.3041,4.60150,2470.624,2023-7-25T06:16:24Z
2023-07-25T04:17:10Z,42.805,6.029,13.3054,4.60142,2470.661,2023-7-25T06:19:27Z
2023-07-25T04:20:13Z,42.805,6.029,13.3038,4.60134,2470.614,2023-7-25T06:22:30Z
2023-07-25T04:23:16Z,42.805,6.029,13.3042,4.60160,2470.661,2023-7-25T06:25:33Z
2023-07-25T04:26:19Z,42.805,6.029,13.3034,4.60140,2470.646,2023-7-25T06:28:36Z
2023-07-25T04:29:22Z,42.805,6.029,13.3038,4.60135,2470.624,2023-7-25T06:31:39Z
2023-07-25T04:32:25Z,42.805,6.029,13.3043,4.60152,2470.637,2023-7-25T06:34:42Z
2023-07-25T04:35:28Z,42.805,6.029,13.3039,4.60144,2470.624,2023-7-25T06:37:46Z
2023-07-25T04:38:31Z,42.805,6.029,13.3039,4.60135,2470.614,2023-7-25T06:40:49Z
2023-07-25T04:41:34Z,42.805,6.029,13.3041,4.60130,2470.614,2023-7-25T06:43:52Z
2023-07-25T04:44:37Z,42.805,6.029,13.3037,4.60135,2470.6,2023-7-25T06:46:55Z
2023-07-25T04:47:40Z,42.805,6.029,13.3039,4.60139,2470.614,2023-7-25T06:49:58Z
2023-07-25T04:50:44Z,42.805,6.029,13.3045,4.60136,2470.637,2023-7-25T06:53:01Z
2023-07-25T04:53:47Z,42.805,6.029,13.3046,4.60129,2470.624,2023-7-25T06:56:04Z
2023-07-25T04:56:50Z,42.805,6.029,13.3036,4.60140,2470.624,2023-7-25T06:59:07Z
2023-07-25T04:59:53Z,42.805,6.029,13.3043,4.60137,2470.6,2023-7-25T07:02:10Z
2023-07-25T05:02:56Z,42.805,6.029,13.3036,4.60127,2470.624,2023-7-25T07:05:13Z
2023-07-25T05:05:59Z,42.805,6.029,13.3038,4.60122,2470.637,2023-7-25T07:08:16Z
2023-07-25T05:09:02Z,42.805,6.029,13.3037,4.60114,2470.624,2023-7-25T07:11:19Z
2023-07-25T05:12:05Z,42.805,6.029,13.3041,4.60137,2470.637,2023-7-25T07:14:23Z
2023-07-25T05:15:08Z,42.805,6.029,13.3039,4.60147,2470.6,2023-7-25T07:17:26Z
2023-07-25T05:18:11Z,42.805,6.029,13.3037,4.60150,2470.624,2023-7-25T07:20:29Z
2023-07-25T05:21:14Z,42.805,6.029,13.3039,4.60137,2470.624,2023-7-25T07:23:32Z
2023-07-25T05:24:17Z,42.805,6.029,13.3047,4.60144,2470.614,2023-7-25T07:26:35Z
2023-07-25T05:27:20Z,42.805,6.029,13.3042,4.60127,2470.646,2023-7-25T07:29:38Z
2023-07-25T05:30:24Z,42.805,6.029,13.3044,4.60149,2470.6,2023-7-25T07:32:41Z
2023-07-25T05:33:27Z,42.805,6.029,13.3043,4.60151,2470.6,2023-7-25T07:35:44Z
2023-07-25T05:36:30Z,42.805,6.029,13.3044,4.60138,2470.624,2023-7-25T07:38:47Z
2023-07-25T05:39:33Z,42.805,6.029,13.3043,4.60135,2470.637,2023-7-25T07:41:50Z
2023-07-25T05:42:36Z,42.805,6.029,13.3039,4.60138,2470.614,2023-7-25T07:44:53Z
2023-07-25T05:45:39Z,42.805,6.029,13.3036,4.60122,2470.591,2023-7-25T07:47:56Z
2023-07-25T05:48:42Z,42.805,6.029,13.3042,4.60121,2470.624,2023-7-25T07:51:00Z
2023-07-25T05:51:45Z,42.805,6.029,13.3035,4.60120,2470.637,2023-7-25T07:54:03Z
2023-07-25T05:54:48Z,42.805,6.029,13.3046,4.60129,2470.6,2023-7-25T07:57:06Z
2023-07-25T05:57:51Z,42.805,6.029,13.3047,4.60140,2470.624,2023-7-25T08:00:09Z
2023-07-25T06:00:54Z,42.805,6.029,13.3043,4.60145,2470.614,2023-7-25T08:03:12Z
2023-07-25T06:03:57Z,42.805,6.029,13.3045,4.60131,2470.637,2023-7-25T08:06:15Z
2023-07-25T06:07:00Z,42.805,6.029,13.3039,4.60129,2470.6,2023-7-25T08:09:18Z
2023-07-25T06:10:04Z,42.805,6.029,13.3043,4.60135,2470.577,2023-7-25T08:12:21Z
2023-07-25T06:13:07Z,42.805,6.029,13.3037,4.60128,2470.591,2023-7-25T08:15:24Z
2023-07-25T06:16:10Z,42.805,6.029,13.3040,4.60128,2470.624,2023-7-25T08:18:27Z
2023-07-25T06:19:13Z,42.805,6.029,13.3036,4.60133,2470.577,2023-7-25T08:21:30Z
2023-07-25T06:22:16Z,42.805,6.029,13.3039,4.60111,2470.614,2023-7-25T08:24:33Z
2023-07-25T06:25:19Z,42.805,6.029,13.3044,4.60137,2470.6,2023-7-25T08:27:37Z
2023-07-25T06:28:22Z,42.805,6.029,13.3043,4.60129,2470.6,2023-7-25T08:30:40Z
2023-07-25T06:31:24Z,42.805,6.029,13.3039,4.60129,2470.6,2023-7-25T08:33:41Z
2023-07-25T06:34:27Z,42.805,6.029,13.3048,4.60137,2470.6,2023-7-25T08:36:44Z
2023-07-25T06:37:30Z,42.805,6.029,13.3041,4.60120,2470.6,2023-7-25T08:39:48Z
2023-07-25T06:40:33Z,42.805,6.029,13.3038,4.60150,2470.624,2023-7-25T08:42:51Z
2023-07-25T06:43:36Z,42.805,6.029,13.3043,4.60148,2470.6,2023-7-25T08:45:54Z
2023-07-25T06:46:39Z,42.805,6.029,13.3043,4.60129,2470.637,2023-7-25T08:48:57Z
2023-07-25T06:49:42Z,42.805,6.029,13.3041,4.60132,2470.577,2023-7-25T08:52:00Z
2023-07-25T06:52:45Z,42.805,6.029,13.3037,4.60128,2470.6,2023-7-25T08:55:03Z
2023-07-25T06:55:49Z,42.805,6.029,13.3041,4.60137,2470.624,2023-7-25T08:58:06Z
2023-07-25T06:58:52Z,42.805,6.029,13.3039,4.60144,2470.591,2023-7-25T09:01:09Z
2023-07-25T07:01:55Z,42.805,6.029,13.3036,4.60138,2470.577,2023-7-25T09:04:12Z
2023-07-25T07:04:58Z,42.805,6.029,13.3043,4.60123,2470.6,2023-7-25T09:07:15Z
2023-07-25T07:08:01Z,42.805,6.029,13.3041,4.60122,2470.614,2023-7-25T09:10:18Z
2023-07-25T07:11:04Z,42.805,6.029,13.3036,4.60140,2470.6,2023-7-25T09:13:21Z
2023-07-25T07:14:07Z,42.805,6.029,13.3047,4.60121,2470.577,2023-7-25T09:16:25Z
2023-07-25T07:17:10Z,42.805,6.029,13.3038,4.60125,2470.624,2023-7-25T09:19:28Z
2023-07-25T07:20:13Z,42.805,6.029,13.3036,4.60137,2470.6,2023-7-25T09:22:31Z
2023-07-25T07:23:16Z,42.805,6.029,13.3043,4.60126,2470.6,2023-7-25T09:25:34Z
2023-07-25T07:26:19Z,42.805,6.029,13.3029,4.60117,2470.6,2023-7-25T09:28:37Z
2023-07-25T07:29:22Z,42.805,6.029,13.3037,4.60115,2470.586,2023-7-25T09:31:40Z
2023-07-25T07:32:26Z,42.805,6.029,13.3037,4.60125,2470.614,2023-7-25T09:34:43Z
2023-07-25T07:35:29Z,42.805,6.029,13.3041,4.60132,2470.577,2023-7-25T09:37:46Z
2023-07-25T07:38:32Z,42.805,6.029,13.3043,4.60123,2470.6,2023-7-25T09:40:49Z
2023-07-25T07:41:35Z,42.805,6.029,13.3038,4.60129,2470.614,2023-7-25T09:43:52Z
2023-07-25T07:44:38Z,42.805,6.029,13.3038,4.60122,2470.6,2023-7-25T09:46:55Z
2023-07-25T07:47:41Z,42.805,6.029,13.3036,4.60113,2470.637,2023-7-25T09:49:58Z
2023-07-25T07:50:44Z,42.805,6.029,13.3041,4.60127,2470.614,2023-7-25T09:53:02Z
2023-07-25T07:53:47Z,42.805,6.029,13.3036,4.60121,2470.6,2023-7-25T09:56:05Z
2023-07-25T07:56:50Z,42.805,6.029,13.3036,4.60127,2470.6,2023-7-25T09:59:08Z
2023-07-25T07:59:53Z,42.805,6.029,13.3038,4.60116,2470.6,2023-7-25T10:02:11Z
2023-07-25T08:02:56Z,42.805,6.029,13.3036,4.60112,2470.6,2023-7-25T10:05:14Z
2023-07-25T08:05:59Z,42.805,6.029,13.3036,4.60134,2470.6,2023-7-25T10:08:17Z
2023-07-25T08:09:03Z,42.805,6.029,13.3043,4.60127,2470.624,2023-7-25T10:11:20Z
2023-07-25T08:12:06Z,42.805,6.029,13.3039,4.60118,2470.637,2023-7-25T10:14:23Z
2023-07-25T08:15:09Z,42.805,6.029,13.3040,4.60114,2470.614,2023-7-25T10:17:26Z
2023-07-25T08:18:12Z,42.805,6.029,13.3037,4.60127,2470.6,2023-7-25T10:20:29Z
2023-07-25T08:21:15Z,42.805,6.029,13.3030,4.60105,2470.637,2023-7-25T10:23:32Z
2023-07-25T08:24:18Z,42.805,6.029,13.3031,4.60110,2470.577,2023-7-25T10:26:36Z
2023-07-25T08:27:21Z,42.805,6.029,13.3042,4.60125,2470.637,2023-7-25T10:29:39Z
2023-07-25T08:30:23Z,42.805,6.029,13.3034,4.60104,2470.614,2023-7-25T10:32:40Z
2023-07-25T08:33:26Z,42.805,6.029,13.3031,4.60102,2470.614,2023-7-25T10:35:43Z
2023-07-25T08:36:29Z,42.805,6.029,13.3036,4.60125,2470.624,2023-7-25T10:38:46Z
2023-07-25T08:39:32Z,42.805,6.029,13.3039,4.60119,2470.624,2023-7-25T10:41:49Z
2023-07-25T08:42:35Z,42.805,6.029,13.3033,4.60117,2470.624,2023-7-25T10:44:52Z
2023-07-25T08:45:38Z,42.805,6.029,13.3033,4.60107,2470.637,2023-7-25T10:47:55Z
2023-07-25T08:48:41Z,42.805,6.029,13.3032,4.60107,2470.6,2023-7-25T10:50:59Z
2023-07-25T08:51:44Z,42.805,6.029,13.3037,4.60114,2470.6,2023-7-25T10:54:02Z
2023-07-25T08:54:47Z,42.805,6.029,13.3040,4.60125,2470.646,2023-7-25T10:57:05Z
2023-07-25T08:57:50Z,42.805,6.029,13.3033,4.60132,2470.646,2023-7-25T11:00:08Z
2023-07-25T09:00:53Z,42.805,6.029,13.3031,4.60115,2470.637,2023-7-25T11:03:11Z
2023-07-25T09:03:56Z,42.805,6.029,13.3038,4.60121,2470.637,2023-7-25T11:06:14Z
2023-07-25T09:07:00Z,42.805,6.029,13.3033,4.60114,2470.624,2023-7-25T11:09:17Z
2023-07-25T09:10:03Z,42.805,6.029,13.3036,4.60115,2470.637,2023-7-25T11:12:20Z
2023-07-25T09:13:06Z,42.805,6.029,13.3037,4.60118,2470.661,2023-7-25T11:15:23Z
2023-07-25T09:16:09Z,42.805,6.029,13.3041,4.60118,2470.661,2023-7-25T11:18:26Z
2023-07-25T09:19:12Z,42.805,6.029,13.3041,4.60122,2470.684,2023-7-25T11:21:29Z
2023-07-25T09:22:15Z,42.805,6.029,13.3034,4.60117,2470.646,2023-7-25T11:24:32Z
2023-07-25T09:25:18Z,42.805,6.029,13.3041,4.60107,2470.646,2023-7-25T11:27:36Z
2023-07-25T09:28:21Z,42.805,6.029,13.3029,4.60114,2470.661,2023-7-25T11:30:39Z
2023-07-25T09:31:24Z,42.805,6.029,13.3029,4.60114,2470.646,2023-7-25T11:33:42Z
2023-07-25T09:34:27Z,42.805,6.029,13.3028,4.60112,2470.661,2023-7-25T11:36:45Z
2023-07-25T09:37:30Z,42.805,6.029,13.3039,4.60112,2470.637,2023-7-25T11:39:48Z
2023-07-25T09:40:34Z,42.805,6.029,13.3031,4.60102,2470.646,2023-7-25T11:42:51Z
2023-07-25T09:43:37Z,42.805,6.029,13.3031,4.60109,2470.67,2023-7-25T11:45:54Z
2023-07-25T09:46:40Z,42.805,6.029,13.3036,4.60104,2470.67,2023-7-25T11:48:57Z
2023-07-25T09:49:43Z,42.805,6.029,13.3036,4.60114,2470.661,2023-7-25T11:52:00Z
2023-07-25T09:52:46Z,42.805,6.029,13.3035,4.60115,2470.646,2023-7-25T11:55:03Z
2023-07-25T09:55:49Z,42.805,6.029,13.3034,4.60117,2470.646,2023-7-25T11:58:06Z
2023-07-25T09:58:52Z,42.805,6.029,13.3037,4.60106,2470.646,2023-7-25T12:01:10Z
2023-07-25T10:01:55Z,42.805,6.029,13.3041,4.60114,2470.646,2023-7-25T12:04:13Z
2023-07-25T10:04:58Z,42.805,6.029,13.3036,4.60109,2470.67,2023-7-25T12:07:16Z
2023-07-25T10:08:01Z,42.805,6.029,13.3031,4.60102,2470.67,2023-7-25T12:10:19Z
2023-07-25T10:11:04Z,42.805,6.029,13.3030,4.60108,2470.661,2023-7-25T12:13:22Z
2023-07-25T10:14:07Z,42.805,6.029,13.3034,4.60116,2470.67,2023-7-25T12:16:25Z
2023-07-25T10:17:11Z,42.805,6.029,13.3031,4.60114,2470.646,2023-7-25T12:19:28Z
2023-07-25T10:20:14Z,42.805,6.029,13.3031,4.60102,2470.646,2023-7-25T12:22:31Z
2023-07-25T10:23:17Z,42.805,6.029,13.3039,4.60108,2470.646,2023-7-25T12:25:34Z
2023-07-25T10:26:20Z,42.805,6.029,13.3034,4.60125,2470.67,2023-7-25T12:28:37Z
2023-07-25T10:29:23Z,42.805,6.029,13.3033,4.60114,2470.661,2023-7-25T12:31:40Z
2023-07-25T10:32:26Z,42.805,6.029,13.3034,4.60111,2470.646,2023-7-25T12:34:44Z
2023-07-25T10:35:29Z,42.805,6.029,13.3034,4.60114,2470.646,2023-7-25T12:37:47Z
2023-07-25T10:38:32Z,42.805,6.029,13.3036,4.60123,2470.684,2023-7-25T12:40:50Z
2023-07-25T10:41:35Z,42.805,6.029,13.3031,4.60122,2470.67,2023-7-25T12:43:53Z
2023-07-25T10:44:38Z,42.805,6.029,13.3031,4.60114,2470.67,2023-7-25T12:46:56Z
2023-07-25T10:47:41Z,42.805,6.029,13.3035,4.60111,2470.707,2023-7-25T12:49:59Z
2023-07-25T10:50:45Z,42.805,6.029,13.3034,4.60111,2470.67,2023-7-25T12:53:02Z
2023-07-25T10:53:48Z,42.805,6.029,13.3031,4.60103,2470.693,2023-7-25T12:56:05Z
2023-07-25T10:56:51Z,42.805,6.029,13.3031,4.60104,2470.693,2023-7-25T12:59:08Z
2023-07-25T10:59:54Z,42.805,6.029,13.3043,4.60120,2470.646,2023-7-25T13:02:11Z
2023-07-25T11:02:57Z,42.805,6.029,13.3043,4.60132,2470.684,2023-7-25T13:05:14Z
2023-07-25T11:06:00Z,42.805,6.029,13.3033,4.60113,2470.67,2023-7-25T13:08:17Z
2023-07-25T11:09:03Z,42.805,6.029,13.3036,4.60111,2470.661,2023-7-25T13:11:21Z
2023-07-25T11:12:06Z,42.805,6.029,13.3043,4.60107,2470.684,2023-7-25T13:14:24Z
2023-07-25T11:15:09Z,42.805,6.029,13.3031,4.60117,2470.646,2023-7-25T13:17:27Z
2023-07-25T11:18:12Z,42.805,6.029,13.3038,4.60111,2470.67,2023-7-25T13:20:30Z
2023-07-25T11:21:15Z,42.805,6.029,13.3042,4.60132,2470.67,2023-7-25T13:23:33Z
2023-07-25T11:24:19Z,42.805,6.029,13.3035,4.60122,2470.693,2023-7-25T13:26:36Z
2023-07-25T11:27:22Z,42.805,6.029,13.3037,4.60116,2470.693,2023-7-25T13:29:39Z
2023-07-25T11:30:25Z,42.805,6.029,13.3048,4.60137,2470.67,2023-7-25T13:32:42Z
2023-07-25T11:33:28Z,42.805,6.029,13.3040,4.60117,2470.67,2023-7-25T13:35:45Z
2023-07-25T11:36:31Z,42.805,6.029,13.3035,4.60140,2470.707,2023-7-25T13:38:48Z
2023-07-25T11:39:34Z,42.805,6.029,13.3033,4.60137,2470.693,2023-7-25T13:41:52Z
2023-07-25T11:42:37Z,42.805,6.029,13.3034,4.60116,2470.67,2023-7-25T13:44:55Z
2023-07-25T11:45:40Z,42.805,6.029,13.3039,4.60119,2470.646,2023-7-25T13:47:58Z
2023-07-25T11:48:43Z,42.805,6.029,13.3041,4.60112,2470.693,2023-7-25T13:51:01Z
2023-07-25T11:51:46Z,42.805,6.029,13.3036,4.60117,2470.707,2023-7-25T13:54:04Z
2023-07-25T11:54:49Z,42.805,6.029,13.3034,4.60107,2470.67,2023-7-25T13:57:07Z
2023-07-25T11:57:53Z,42.805,6.029,13.3037,4.60106,2470.693,2023-7-25T14:00:10Z
2023-07-25T12:00:56Z,42.805,6.029,13.3035,4.60121,2470.684,2023-7-25T14:03:13Z
2023-07-25T12:03:59Z,42.805,6.029,13.3049,4.60125,2470.693,2023-7-25T14:06:16Z
2023-07-25T12:07:02Z,42.805,6.029,13.3048,4.60129,2470.67,2023-7-25T14:09:19Z
2023-07-25T12:10:05Z,42.805,6.029,13.3036,4.60112,2470.693,2023-7-25T14:12:22Z
2023-07-25T12:13:08Z,42.805,6.029,13.3033,4.60111,2470.684,2023-7-25T14:15:25Z
2023-07-25T12:16:11Z,42.805,6.029,13.3031,4.60105,2470.693,2023-7-25T14:18:29Z
2023-07-25T12:19:14Z,42.805,6.029,13.3042,4.60108,2470.707,2023-7-25T14:21:32Z
2023-07-25T12:22:17Z,42.805,6.029,13.3040,4.60129,2470.67,2023-7-25T14:24:35Z
2023-07-25T12:25:20Z,42.805,6.029,13.3044,4.60113,2470.67,2023-7-25T14:27:38Z
2023-07-25T12:28:23Z,42.805,6.029,13.3034,4.60101,2470.67,2023-7-25T14:30:41Z
2023-07-25T12:31:28Z,42.805,6.029,13.3032,4.60104,2470.637,2023-7-25T14:33:45Z
2023-07-25T12:34:31Z,42.805,6.029,13.3037,4.60122,2470.707,2023-7-25T14:36:48Z
2023-07-25T12:37:34Z,42.805,6.029,13.3039,4.60108,2470.646,2023-7-25T14:39:51Z
2023-07-25T12:40:37Z,42.805,6.029,13.3044,4.60122,2470.661,2023-7-25T14:42:55Z
2023-07-25T12:43:40Z,42.805,6.029,13.3031,4.60119,2470.67,2023-7-25T14:45:58Z
2023-07-25T12:46:43Z,42.805,6.029,13.3038,4.60114,2470.707,2023-7-25T14:49:01Z
2023-07-25T12:49:46Z,42.805,6.029,13.3045,4.60131,2470.67,2023-7-25T14:52:04Z
2023-07-25T12:52:49Z,42.805,6.029,13.3044,4.60097,2470.646,2023-7-25T14:55:07Z
2023-07-25T12:55:52Z,42.805,6.029,13.3035,4.60103,2470.624,2023-7-25T14:58:10Z
2023-07-25T12:58:56Z,42.805,6.029,13.3039,4.60104,2470.646,2023-7-25T15:01:13Z
2023-07-25T13:01:59Z,42.805,6.029,13.3031,4.60111,2470.693,2023-7-25T15:04:16Z
2023-07-25T13:05:02Z,42.805,6.029,13.3036,4.60096,2470.693,2023-7-25T15:07:19Z
2023-07-25T13:08:05Z,42.805,6.029,13.3036,4.60110,2470.684,2023-7-25T15:10:22Z
2023-07-25T13:11:08Z,42.805,6.029,13.3034,4.60122,2470.661,2023-7-25T15:13:25Z
2023-07-25T13:14:11Z,42.805,6.029,13.3031,4.60110,2470.67,2023-7-25T15:16:29Z
2023-07-25T13:17:14Z,42.805,6.029,13.3038,4.60114,2470.646,2023-7-25T15:19:32Z
2023-07-25T13:20:17Z,42.805,6.029,13.3037,4.60132,2470.661,2023-7-25T15:22:35Z
2023-07-25T13:23:20Z,42.805,6.029,13.3031,4.60109,2470.67,2023-7-25T15:25:38Z
2023-07-25T13:26:23Z,42.805,6.029,13.3033,4.60099,2470.67,2023-7-25T15:28:41Z
2023-07-25T13:29:26Z,42.805,6.029,13.3036,4.60122,2470.646,2023-7-25T15:31:44Z
2023-07-25T13:32:30Z,42.805,6.029,13.3035,4.60135,2470.646,2023-7-25T15:34:47Z
2023-07-25T13:35:33Z,42.805,6.029,13.3033,4.60108,2470.646,2023-7-25T15:37:50Z
2023-07-25T13:38:36Z,42.805,6.029,13.3038,4.60140,2470.646,2023-7-25T15:40:53Z
2023-07-25T13:41:39Z,42.805,6.029,13.3032,4.60108,2470.684,2023-7-25T15:43:56Z
2023-07-25T13:44:42Z,42.805,6.029,13.3044,4.60110,2470.661,2023-7-25T15:46:59Z
2023-07-25T13:47:45Z,42.805,6.029,13.3036,4.60121,2470.684,2023-7-25T15:50:03Z
2023-07-25T13:50:48Z,42.805,6.029,13.3039,4.60113,2470.661,2023-7-25T15:53:06Z
2023-07-25T13:53:51Z,42.805,6.029,13.3030,4.60112,2470.61,2023-7-25T15:56:09Z
2023-07-25T13:56:54Z,42.805,6.029,13.3035,4.60139,2470.624,2023-7-25T15:59:12Z
2023-07-25T13:59:57Z,42.805,6.029,13.3034,4.60121,2470.624,2023-7-25T16:02:15Z
2023-07-25T14:03:00Z,42.805,6.029,13.3035,4.60137,2470.67,2023-7-25T16:05:18Z
2023-07-25T14:06:03Z,42.805,6.029,13.3040,4.60108,2470.646,2023-7-25T16:08:21Z
2023-07-25T14:09:07Z,42.805,6.029,13.3041,4.60114,2470.624,2023-7-25T16:11:24Z
2023-07-25T14:12:10Z,42.805,6.029,13.3037,4.60110,2470.6,2023-7-25T16:14:27Z
2023-07-25T14:15:13Z,42.805,6.029,13.3035,4.60119,2470.624,2023-7-25T16:17:30Z
2023-07-25T14:18:16Z,42.805,6.029,13.3033,4.60113,2470.661,2023-7-25T16:20:33Z
2023-07-25T14:21:19Z,42.805,6.029,13.3035,4.60103,2470.67,2023-7-25T16:23:36Z
2023-07-25T14:24:22Z,42.805,6.029,13.3045,4.60113,2470.646,2023-7-25T16:26:40Z
2023-07-25T14:27:25Z,42.805,6.029,13.3036,4.60102,2470.624,2023-7-25T16:29:43Z
2023-07-25T14:30:28Z,42.805,6.029,13.3039,4.60121,2470.637,2023-7-25T16:32:45Z
2023-07-25T14:33:31Z,42.805,6.029,13.3038,4.60108,2470.6,2023-7-25T16:35:48Z
2023-07-25T14:36:34Z,42.805,6.029,13.3041,4.60113,2470.646,2023-7-25T16:38:51Z
2023-07-25T14:39:37Z,42.805,6.029,13.3042,4.60120,2470.624,2023-7-25T16:41:54Z
2023-07-25T14:42:40Z,42.805,6.029,13.3034,4.60123,2470.624,2023-7-25T16:44:57Z
2023-07-25T14:45:43Z,42.805,6.029,13.3030,4.60117,2470.637,2023-7-25T16:48:01Z
2023-07-25T14:48:46Z,42.805,6.029,13.3036,4.60117,2470.624,2023-7-25T16:51:04Z
2023-07-25T14:51:49Z,42.805,6.029,13.3048,4.60130,2470.637,2023-7-25T16:54:07Z
2023-07-25T14:54:52Z,42.805,6.029,13.3042,4.60140,2470.646,2023-7-25T16:57:10Z
2023-07-25T14:57:55Z,42.805,6.029,13.3043,4.60146,2470.661,2023-7-25T17:00:13Z
2023-07-25T15:00:58Z,42.805,6.029,13.3053,4.60125,2470.624,2023-7-25T17:03:16Z
2023-07-25T15:04:01Z,42.805,6.029,13.3036,4.60129,2470.646,2023-7-25T17:06:19Z
2023-07-25T15:07:05Z,42.805,6.029,13.3041,4.60121,2470.661,2023-7-25T17:09:22Z
2023-07-25T15:10:08Z,42.805,6.029,13.3049,4.60125,2470.61,2023-7-25T17:12:25Z
2023-07-25T15:13:11Z,42.805,6.029,13.3035,4.60134,2470.624,2023-7-25T17:15:28Z